Date,TemperatureHighF,TemperatureAvgF,TemperatureLowF,DewpointHighF,DewpointAvgF,DewpointLowF,HumidityHigh,HumidityAvg,HumidityLow,PressureMaxIn,PressureMinIn,WindSpeedMaxMPH,WindSpeedAvgMPH,GustSpeedMaxMPH,PrecipitationSumIn
2013-1-1,81.9,72.9,55.8,62.7,59.8,54.1,95,66,45,30.13,29.99,12,2,17,0.01
2013-1-2,83.7,75.2,64.8,70.2,66.5,63.1,95,76,54,30.06,29.94,10,3,13,0.01
2013-1-3,84.2,72.3,59.0,72.5,64.2,58.7,99,79,50,30.08,29.98,11,3,17,0.01
2013-1-4,71.8,68.2,63.7,67.3,65.4,62.8,98,91,84,30.21,30.11,12,4,15,0.10
2013-1-5,78.8,71.7,61.9,66.6,64.1,61.3,98,78,63,30.24,30.12,16,6,21,0.00
2013-1-6,85.1,79.6,68.7,74.5,69.1,66.1,99,72,56,30.13,30.00,9,4,12,0.00
2013-1-7,68.9,68.7,68.5,68.1,67.9,67.5,98,97,97,30.14,30.06,11,6,16,0.02
2013-1-8,84.6,74.6,65.1,70.9,67.8,64.4,99,81,53,30.15,30.06,17,6,24,0.16
2013-1-9,85.8,79.8,71.8,73.0,67.6,62.9,97,68,49,30.21,30.13,18,8,24,0.01
2013-1-10,83.1,80.1,72.9,61.7,60.7,58.6,67,52,45,30.20,30.15,14,8,24,0.12
2013-1-11,83.7,78.9,71.8,70.9,65.6,57.8,94,65,43,30.21,30.08,17,7,20,0.01
2013-1-12,82.9,79.5,71.1,70.9,66.5,62.6,94,65,52,30.14,30.02,17,7,21,0.02
2013-1-13,83.5,78.2,70.2,68.8,65.8,61.5,90,67,49,30.10,30.01,16,4,18,0.02
2013-1-14,83.5,74.8,62.1,67.1,62.4,59.0,98,68,46,30.15,30.06,12,3,17,0.01
2013-1-15,83.1,73.5,60.8,65.6,62.5,59.9,98,71,48,30.11,30.00,7,2,8,0.20
2013-1-16,79.7,67.2,61.0,71.5,64.5,60.4,99,92,65,30.07,30.01,8,2,10,0.09
2013-1-17,73.8,64.5,61.7,69.1,57.8,49.3,99,80,63,30.10,29.97,19,8,27,0.14
2013-1-18,68.2,60.0,45.7,54.0,46.1,36.5,72,60,54,30.27,30.14,17,9,24,0.02
2013-1-19,75.9,69.7,61.0,64.2,62.6,60.4,98,79,64,30.21,30.06,18,9,24,0.01
2013-1-20,81.5,77.1,70.2,69.3,65.6,62.5,94,68,59,30.12,29.98,9,3,13,0.01
2013-1-21,66.0,63.4,61.7,64.5,61.9,60.3,96,95,93,30.04,29.99,4,1,4,0.01
2013-1-22,72.0,64.1,57.6,53.0,48.6,41.7,83,58,42,30.23,30.10,15,7,22,0.12
2013-1-23,74.1,62.3,52.9,49.1,42.2,36.6,69,49,29,30.31,30.20,14,6,21,0.00
2013-1-24,77.0,68.6,49.5,50.9,42.4,34.1,90,43,22,30.29,30.18,10,4,14,0.02
2013-1-25,64.2,59.5,52.2,55.1,49.5,46.9,94,72,54,30.26,30.17,2,0,3,0.15
2013-1-26,80.4,72.2,52.5,53.7,48.6,42.0,89,47,27,30.25,30.13,9,3,12,0.01
2013-1-27,79.7,75.4,61.2,57.8,54.5,51.3,86,50,39,30.26,30.16,19,10,24,0.01
2013-1-28,82.2,75.7,71.1,61.0,58.9,57.8,65,57,48,30.24,30.19,18,6,27,0.11
2013-1-29,73.0,65.3,62.8,67.8,63.6,61.6,98,95,79,30.19,30.08,8,4,10,0.14
2013-1-30,78.8,69.0,64.9,67.6,64.9,63.2,96,88,59,30.03,29.93,11,4,14,0.19
2013-1-31,73.2,66.5,54.1,60.1,50.9,34.9,98,62,33,30.16,30.05,12,6,16,0.08
2013-2-1,48.6,47.1,46.2,36.0,35.7,35.3,66,64,62,30.26,30.25,12,7,16,0.00
2013-2-2,75.6,72.2,67.6,48.0,43.5,39.2,42,36,32,30.25,30.13,18,8,27,0.00
2013-2-3,74.8,65.9,48.4,53.0,35.9,26.9,86,38,19,30.19,30.05,15,5,21,0.00
2013-2-4,74.5,64.2,54.3,53.9,40.8,26.2,90,49,17,30.13,29.99,11,2,42,0.00
2013-2-5,82.4,74.0,51.4,56.0,52.2,45.5,80,48,36,30.03,29.96,10,3,11,0.00
2013-2-6,73.2,63.3,56.7,63.3,57.1,54.1,92,81,60,30.07,30.02,7,2,9,0.00
2013-2-7,83.7,71.5,61.5,66.2,63.3,58.8,97,78,46,30.04,29.89,12,4,16,0.00
2013-2-8,86.9,81.6,68.9,70.3,60.6,50.9,95,52,30,29.99,29.91,11,6,16,0.00
2013-2-9,80.1,74.6,64.8,62.3,59.3,57.0,85,60,47,30.14,30.05,21,9,25,0.00
2013-2-10,82.0,75.4,66.7,63.9,61.1,56.3,84,62,43,30.20,30.09,22,9,30,0.00
2013-2-11,84.6,80.1,75.4,65.9,64.6,63.1,69,59,50,30.17,30.04,10,5,15,0.00
2013-2-12,85.3,76.1,63.1,69.3,66.5,62.3,99,75,56,30.06,29.92,14,6,20,0.00
2013-2-13,86.4,81.6,72.1,74.4,70.9,68.1,97,72,55,29.96,29.88,13,6,19,0.00
2013-2-14,73.6,63.6,60.3,70.9,62.0,58.8,98,95,87,30.00,29.86,16,6,19,1.34
2013-2-15,68.9,64.7,59.9,63.0,61.2,59.3,99,89,77,30.03,29.91,8,2,11,0.02
2013-2-16,71.1,66.4,58.1,54.5,50.8,46.4,77,58,45,29.98,29.91,24,9,29,0.00
2013-2-17,59.5,55.9,48.9,26.5,20.8,16.2,34,26,20,30.29,30.22,19,8,24,0.00
2013-2-18,71.2,61.8,40.3,46.7,40.2,29.1,68,46,37,30.31,30.17,25,10,30,0.00
2013-2-19,81.7,65.7,52.5,60.1,55.9,50.8,95,75,47,30.15,30.10,8,3,11,0.00
2013-2-20,84.9,74.6,56.1,71.5,59.3,53.4,99,63,38,30.09,29.95,12,3,14,0.00
2013-2-21,86.7,78.4,61.2,66.5,63.2,60.6,98,63,44,30.04,29.95,17,5,26,0.00
2013-2-22,88.7,79.6,62.8,72.9,67.4,61.9,99,69,44,30.06,29.94,11,4,17,0.00
2013-2-23,88.0,82.1,70.3,73.3,70.5,67.5,98,70,52,29.98,29.88,13,7,20,0.00
2013-2-24,90.0,80.3,70.0,78.3,69.4,63.3,99,72,45,29.95,29.87,11,3,14,0.00
2013-2-25,83.1,74.2,65.8,71.4,67.5,64.9,99,81,55,29.86,29.75,9,2,13,0.00
2013-2-26,86.4,75.6,67.1,73.3,70.2,64.5,96,84,62,29.86,29.75,17,5,27,0.03
2013-2-27,81.5,70.5,63.1,68.3,62.8,58.5,98,78,48,29.94,29.83,8,2,11,0.00
2013-2-28,78.1,69.9,59.5,57.6,54.6,51.8,83,60,42,29.98,29.88,11,5,16,0.06
2013-3-1,68.4,62.2,56.8,51.0,46.6,43.6,69,57,42,29.99,29.90,11,4,15,0.01
2013-3-2,64.8,57.6,52.9,44.7,41.6,37.0,68,56,41,30.04,29.96,15,6,21,0.00
2013-3-3,63.0,55.4,43.0,44.7,39.8,34.1,73,57,41,30.08,29.98,20,8,24,0.04
2013-3-4,65.8,57.9,50.0,39.7,37.0,35.0,67,46,33,30.21,30.16,17,7,21,0.00
2013-3-5,78.8,69.8,44.4,56.9,51.7,41.6,90,55,36,30.15,30.05,12,5,17,0.00
2013-3-6,74.1,65.4,53.8,61.0,42.5,32.5,92,46,28,30.09,29.98,15,8,21,0.03
2013-3-7,71.1,60.8,45.0,46.7,38.1,31.8,72,45,25,30.20,30.09,17,6,19,0.09
2013-3-8,80.1,70.6,49.6,52.3,44.3,33.2,91,43,19,30.20,30.07,14,4,15,0.00
2013-3-9,80.1,71.6,50.9,53.9,47.1,36.6,93,46,22,30.18,30.07,18,7,21,12.88
2013-3-11,82.8,72.9,59.5,61.8,58.4,55.3,93,64,41,30.01,29.92,18,6,24,0.00
2013-3-12,77.2,69.4,60.4,69.8,64.7,55.9,92,85,73,30.00,29.89,17,5,24,0.00
2013-3-13,79.0,70.6,52.7,47.9,39.1,31.9,83,36,19,30.13,30.02,16,6,20,0.00
2013-3-14,75.2,67.0,49.8,39.8,27.8,18.6,68,26,14,30.22,30.10,19,7,24,0.00
2013-3-15,76.5,68.8,46.9,48.1,34.5,23.5,89,32,16,30.27,30.11,21,7,25,0.00
2013-3-16,83.3,73.3,50.7,56.6,46.7,38.4,94,43,22,30.17,30.04,10,4,14,0.00
2013-3-17,84.6,76.3,61.3,59.4,56.9,54.0,81,52,40,30.11,29.96,10,4,14,0.00
2013-3-18,80.1,71.5,65.3,71.5,67.7,60.7,95,88,66,30.01,29.92,11,4,15,0.09
2013-3-19,86.9,76.0,66.0,67.9,65.9,63.3,97,74,46,29.96,29.85,10,3,14,0.00
2013-3-20,86.0,72.5,62.6,65.5,61.3,54.9,98,71,41,29.98,29.77,14,5,20,0.02
2013-3-21,77.9,72.1,57.4,56.9,40.4,25.8,96,38,15,29.93,29.85,12,4,15,0.00
2013-3-22,84.4,73.9,51.3,70.4,61.1,41.8,88,65,48,29.95,29.85,11,4,15,0.00
2013-3-23,88.7,82.5,70.0,77.7,69.3,65.0,99,67,47,29.90,29.77,14,6,21,0.00
2013-3-24,84.7,80.0,73.8,74.7,73.3,71.2,96,81,67,29.78,29.65,19,9,27,0.05
2013-3-25,79.0,73.3,65.7,59.7,41.7,27.4,81,39,17,29.87,29.80,17,9,21,0.00
2013-3-26,66.9,59.9,53.4,38.1,34.0,27.8,52,38,30,30.17,30.11,17,8,21,0.00
2013-3-27,69.3,62.5,47.1,41.3,32.3,26.6,66,34,21,30.28,30.16,14,6,19,0.00
2013-3-28,76.5,69.4,53.1,46.4,35.4,24.4,77,32,15,30.28,30.13,17,5,20,0.00
2013-3-29,80.1,72.5,54.3,72.6,40.1,32.8,94,34,19,30.29,30.06,22,5,27,19.87
2013-3-30,80.4,69.8,54.1,56.4,53.4,49.1,92,59,35,30.24,30.20,9,4,12,0.00
2013-3-31,87.3,79.9,68.5,61.0,58.6,53.7,77,50,35,30.11,29.98,11,5,16,0.00
2013-4-1,86.7,77.1,63.5,68.1,64.8,61.3,98,69,45,30.01,29.93,14,6,19,0.00
2013-4-2,91.8,80.4,66.4,70.3,64.6,61.1,99,63,40,30.06,29.96,10,4,14,0.00
2013-4-3,92.3,84.8,74.8,70.0,65.4,60.3,83,54,36,30.01,29.90,12,6,18,0.00
2013-4-4,86.0,73.1,66.0,72.4,67.9,62.6,95,85,62,30.00,29.82,25,5,34,0.22
2013-4-5,78.3,72.1,63.5,69.0,63.5,55.7,94,75,56,29.91,29.80,17,6,25,0.22
2013-4-6,80.8,74.8,60.3,61.2,57.7,54.8,89,57,43,30.03,29.96,17,6,21,0.00
2013-4-7,86.7,80.1,71.8,65.0,61.0,56.8,76,53,41,30.10,29.99,20,9,24,0.00
2013-4-8,89.6,79.9,63.1,64.9,58.4,52.7,92,51,30,30.08,29.98,19,6,23,0.00
2013-4-9,87.3,78.7,63.7,67.9,63.3,58.1,95,62,40,30.11,30.00,24,8,30,0.00
2013-4-10,91.9,82.4,72.3,71.2,68.5,64.2,90,64,43,30.03,29.92,17,6,24,0.00
2013-4-11,90.5,82.3,71.1,73.5,71.1,67.3,97,70,49,29.95,29.81,17,7,24,0.00
2013-4-12,91.8,83.7,73.8,77.3,72.1,68.0,98,70,48,29.90,29.83,14,6,17,0.00
2013-4-13,96.1,86.9,73.2,70.5,67.7,64.1,83,55,40,29.94,29.85,10,4,13,0.00
2013-4-14,94.5,87.4,73.9,75.2,71.6,67.5,95,61,48,29.92,29.80,12,6,18,0.00
2013-4-15,97.7,86.4,66.7,72.0,68.9,64.0,92,59,39,30.06,29.88,17,4,21,0.00
2013-4-16,94.5,88.5,70.7,73.1,69.3,66.4,98,56,42,30.07,29.98,29,8,35,0.00
2013-4-17,89.6,84.4,72.9,70.8,65.8,61.8,92,55,42,30.08,29.96,21,10,24,0.00
2013-4-18,95.4,84.7,71.4,75.4,69.7,64.9,94,63,40,30.00,29.89,17,5,21,0.24
2013-4-19,93.9,84.8,74.5,75.2,70.7,64.2,89,65,42,29.99,29.90,14,5,21,0.00
2013-4-20,93.0,85.5,75.0,80.0,71.5,67.6,97,64,47,30.03,29.92,19,5,24,0.02
2013-4-21,90.7,81.9,69.3,70.4,68.1,64.4,94,65,43,30.07,29.94,17,6,24,0.00
2013-4-22,89.6,77.7,68.2,72.3,69.1,66.4,98,76,51,30.02,29.90,18,6,25,0.00
2013-4-23,83.5,73.6,67.5,70.2,67.9,65.4,97,84,56,30.04,29.97,22,9,25,0.00
2013-4-24,91.8,85.2,76.5,67.1,62.9,57.3,73,48,33,30.10,30.00,14,5,18,0.00
2013-4-25,91.2,83.6,66.0,70.2,62.5,56.6,95,53,32,30.15,30.07,16,5,21,0.00
2013-4-26,87.6,85.1,78.6,64.6,62.8,60.3,60,48,43,30.20,30.10,22,10,27,0.00
2013-4-27,87.3,82.1,71.8,65.6,61.5,59.3,71,51,40,30.14,30.02,23,11,29,0.00
2013-4-28,89.1,81.2,66.0,69.4,63.1,60.1,91,56,40,30.06,29.92,21,7,24,0.00
2013-4-29,95.0,80.5,66.2,70.0,66.7,62.5,89,65,40,29.98,29.88,16,4,21,0.02
2013-4-30,95.2,80.5,68.5,75.4,70.3,66.7,98,74,42,29.95,29.87,27,6,32,0.00
2013-5-1,81.3,72.4,68.4,75.3,70.0,66.1,98,92,76,29.97,29.81,30,7,41,0.87
2013-5-2,75.6,71.0,67.8,72.2,69.0,66.3,99,94,81,29.91,29.77,14,2,19,0.25
2013-5-3,92.3,81.7,67.6,74.7,68.1,62.7,99,66,41,29.81,29.66,12,4,18,0.02
2013-5-4,86.4,80.7,70.9,70.1,67.4,64.0,90,65,54,29.74,29.69,18,9,24,0.00
2013-5-5,84.4,78.3,66.7,55.8,50.8,42.7,68,40,27,29.92,29.82,14,6,17,0.00
2013-5-6,85.8,78.0,63.0,67.2,62.1,56.7,95,60,43,29.98,29.90,12,5,17,0.00
2013-5-7,84.0,76.6,61.7,62.1,59.4,57.1,89,57,44,30.04,29.96,14,6,19,0.00
2013-5-8,88.5,80.0,60.1,66.8,59.3,50.6,95,52,33,30.11,30.03,11,4,14,0.00
2013-5-9,93.6,83.8,59.9,66.3,58.9,49.5,95,47,25,30.12,30.02,12,4,15,0.00
2013-5-10,96.6,84.8,-40.0,71.9,68.7,63.3,96,60,39,30.06,29.95,12,4,15,0.00
2013-5-11,81.7,75.6,72.3,75.3,72.6,70.5,94,91,81,30.02,30.00,4,2,6,0.00
2013-5-12,93.6,86.4,72.7,82.2,72.8,68.9,99,67,48,30.00,29.93,14,6,20,0.00
2013-5-13,93.4,82.1,70.5,71.3,64.9,52.5,91,58,41,30.08,29.98,11,4,14,0.00
2013-5-14,89.6,80.5,62.1,58.2,54.8,46.6,82,44,23,30.15,30.05,19,8,27,0.00
2013-5-15,87.3,80.2,62.6,63.1,59.3,56.1,87,51,36,30.16,30.03,21,8,27,0.00
2013-5-16,91.6,82.9,66.6,65.0,59.1,52.2,91,47,30,30.08,29.95,15,6,21,19.87
2013-5-17,95.4,88.6,77.2,69.2,62.8,55.8,75,44,31,30.05,29.97,14,4,18,0.00
2013-5-18,100.8,89.9,70.5,76.2,65.9,59.2,97,49,29,30.07,29.96,11,4,14,0.00
2013-5-19,100.4,91.8,79.2,72.0,68.5,65.8,77,48,34,30.06,29.94,19,3,21,0.00
2013-5-20,95.9,82.9,70.3,77.7,71.0,63.5,96,71,36,30.04,29.92,20,5,32,0.00
2013-5-21,97.0,82.1,68.7,73.1,70.1,66.5,99,71,40,29.98,29.84,17,5,25,0.50
2013-5-22,96.1,86.2,69.1,75.9,71.4,67.4,99,64,42,29.92,29.83,12,5,17,0.00
2013-5-23,96.3,87.1,70.0,76.3,70.3,64.9,97,60,40,29.98,29.90,11,5,15,0.00
2013-5-24,100.2,89.0,76.1,74.8,67.3,59.8,92,51,28,30.03,29.95,15,4,23,0.00
2013-5-25,91.8,84.8,69.1,74.0,66.7,61.7,94,57,40,30.12,30.03,24,11,33,0.00
2013-5-27,89.8,84.5,74.7,71.3,67.2,61.1,78,57,41,30.11,29.99,24,14,33,0.00
2013-5-28,87.3,81.2,71.8,74.2,71.9,67.9,96,75,55,30.05,29.96,26,10,31,0.06
2013-5-29,86.7,79.8,72.0,73.9,70.9,68.0,97,75,57,30.05,29.96,28,12,38,0.06
2013-5-30,81.3,79.0,73.8,74.2,72.8,71.0,93,82,74,30.02,29.93,26,13,36,0.00
2013-5-31,86.2,83.1,79.2,75.0,73.2,71.6,81,73,64,29.99,29.94,23,11,30,0.00
2013-6-1,94.1,80.8,73.9,78.5,74.4,71.6,98,83,51,29.99,29.91,23,5,30,0.39
2013-6-2,98.1,89.4,80.8,78.0,73.1,69.1,84,60,40,29.96,29.87,12,5,18,0.00
2013-6-3,88.3,81.9,74.7,76.7,74.1,71.5,96,78,61,29.93,29.88,14,3,18,0.00
2013-6-4,85.5,78.4,73.0,75.8,73.8,71.2,96,86,69,30.00,29.92,12,4,14,0.02
2013-6-5,80.4,78.3,76.3,76.0,75.1,73.5,96,90,81,29.95,29.82,14,7,21,0.03
2013-6-6,82.4,76.5,72.3,78.5,73.7,68.9,97,91,81,29.78,29.70,24,7,38,0.54
2013-6-7,88.0,82.1,75.9,77.4,73.3,69.9,98,76,60,29.94,29.85,11,3,16,0.00
2013-6-8,95.7,85.5,76.1,79.2,74.8,70.4,95,72,48,30.04,29.95,16,6,22,0.00
2013-6-9,94.8,87.6,75.7,78.3,73.3,67.3,98,65,43,30.06,29.96,19,6,25,0.00
2013-6-10,97.9,85.8,75.0,78.3,73.9,69.1,97,70,40,30.04,29.95,23,5,27,0.00
2013-6-11,100.6,88.1,73.8,83.2,74.8,69.8,97,68,40,30.04,29.93,15,4,20,0.11
2013-6-12,100.4,88.9,73.4,79.6,74.4,69.2,97,66,39,30.04,29.96,21,4,30,0.25
2013-6-13,100.6,85.3,70.5,78.8,73.1,68.6,98,71,40,30.01,29.88,18,2,21,0.31
2013-6-14,95.7,88.9,74.1,83.2,73.3,68.9,99,63,45,29.92,29.84,13,5,17,0.00
2013-6-15,101.3,90.2,74.1,82.5,73.7,68.7,97,62,37,29.99,29.92,12,3,14,0.00
2013-6-16,99.5,89.3,77.2,78.4,74.8,69.9,95,64,42,30.03,29.96,10,4,14,0.00
2013-6-17,100.4,91.5,76.1,80.2,73.3,65.4,97,59,36,30.03,29.93,11,3,17,0.05
2013-6-18,102.6,89.9,75.7,80.0,74.6,66.6,96,63,39,30.02,29.91,16,3,24,0.00
2013-6-19,101.7,87.3,74.8,80.3,74.4,-27.7,98,69,41,30.02,29.93,14,4,23,0.00
2013-6-20,98.4,83.6,73.8,77.6,74.2,68.7,95,75,44,30.06,29.99,14,4,18,0.04
2013-7-19,95.7,82.3,72.7,77.6,74.1,69.8,98,78,45,30.10,29.98,14,5,19,8.78
2013-7-20,98.1,81.6,73.8,81.6,74.5,71.4,97,81,49,30.07,29.97,17,4,24,0.17
2013-7-21,88.3,77.2,74.5,81.4,75.6,73.3,98,95,74,30.10,30.01,6,2,8,0.01
2013-7-22,97.7,92.2,83.5,79.5,74.7,69.4,86,58,43,30.10,30.02,9,4,14,0.00
2013-7-23,98.8,90.2,77.2,81.6,74.8,70.2,96,63,43,30.07,29.95,11,4,14,0.00
2013-7-24,95.7,88.7,75.9,78.2,72.7,68.6,95,61,44,29.97,29.88,13,6,17,0.00
2013-7-25,95.2,88.8,79.2,77.0,75.2,72.8,86,65,53,29.98,29.90,14,7,17,0.00
2013-7-26,100.6,87.3,73.8,80.6,75.4,71.5,96,70,44,29.98,29.91,19,4,25,0.14
2013-7-27,100.8,86.9,78.3,81.4,74.8,70.9,92,70,40,29.96,29.88,20,3,24,0.09
2013-7-28,99.3,86.6,75.2,82.4,73.7,67.7,98,70,40,30.03,29.90,16,2,21,0.00
2013-7-29,99.7,90.1,75.4,78.4,73.6,68.7,95,62,39,30.08,30.00,19,5,27,0.29
2013-7-30,100.6,86.0,75.6,81.1,76.2,71.1,97,75,43,30.12,30.03,27,4,31,0.00
2013-7-31,97.0,88.0,76.6,81.0,75.8,71.5,96,69,48,30.07,29.97,24,5,34,0.02
2013-8-1,99.0,86.7,74.7,79.3,72.8,68.4,98,67,39,29.99,29.88,30,4,39,0.18
2013-8-2,101.5,87.7,76.5,80.0,74.3,68.3,94,67,39,30.03,29.92,23,3,27,0.50
2013-8-3,98.8,82.2,76.6,82.1,76.7,72.0,98,85,49,30.08,29.97,14,2,17,0.32
2013-8-4,98.1,92.0,79.2,84.3,76.7,72.8,98,63,47,30.05,29.96,14,5,16,0.00
2013-8-5,97.7,90.4,78.8,82.7,76.8,71.9,94,66,47,30.00,29.89,11,4,14,0.00
2013-8-6,101.1,87.7,77.2,83.6,76.2,71.6,96,71,44,29.95,29.86,16,3,20,0.02
2013-8-7,100.6,86.1,76.5,79.4,76.1,72.2,97,75,43,29.92,29.85,11,4,14,0.09
2013-8-8,96.1,86.8,76.8,79.3,75.0,69.9,97,70,45,29.95,29.88,33,6,38,0.16
2013-8-9,96.1,83.8,74.1,78.3,74.3,69.8,97,76,45,30.01,29.92,16,5,24,3.14
2013-8-10,96.4,89.2,75.2,78.9,73.7,68.6,97,63,44,30.07,29.97,15,7,24,0.00
2013-8-11,97.2,91.3,77.2,78.7,73.9,68.6,95,59,43,30.09,29.99,14,6,19,0.00
2013-8-12,96.3,89.1,75.4,78.1,71.6,65.4,95,59,39,30.06,29.95,19,7,21,0.00
2013-8-13,101.1,88.0,74.7,79.6,75.3,70.0,95,69,40,29.99,29.88,17,3,20,0.40
2013-8-14,100.0,92.2,83.1,79.9,73.6,67.1,89,56,38,29.95,29.86,11,3,14,0.01
2013-8-15,93.2,85.3,78.3,78.2,76.3,73.6,93,75,56,29.99,29.92,9,3,12,0.00
2013-8-16,97.2,93.3,81.0,77.3,73.1,70.1,79,53,43,30.00,29.90,17,5,24,0.00
2013-8-17,98.6,87.2,77.4,80.9,74.9,69.2,95,70,40,30.06,29.92,17,4,23,19.87
2013-8-18,95.0,87.5,77.4,79.7,75.7,71.3,97,70,48,30.03,29.93,21,7,26,0.00
2013-8-19,97.5,84.1,74.7,79.6,75.2,71.3,97,77,47,30.00,29.89,21,4,24,0.00
2013-8-20,93.4,85.4,74.7,78.8,74.7,71.5,98,72,51,30.01,29.94,20,5,25,0.00
2013-8-21,94.1,86.4,74.5,80.2,76.1,71.0,94,73,53,30.06,29.93,24,9,36,0.00
2013-8-22,97.0,87.6,77.0,79.0,75.5,72.3,95,69,48,30.01,29.91,25,8,30,0.00
2013-8-23,97.2,85.1,75.9,81.4,76.1,71.6,98,77,47,29.97,29.88,21,4,27,0.00
2013-8-24,99.0,89.3,76.5,80.4,74.5,69.3,98,65,41,30.04,29.94,13,4,17,0.00
2013-8-25,91.6,82.8,75.6,78.1,75.6,72.7,97,80,58,30.10,30.01,16,6,19,0.00
2013-8-26,98.8,82.4,74.3,79.7,74.5,70.4,96,79,42,30.06,29.95,17,4,24,0.00
2013-8-27,93.4,81.4,73.6,78.4,74.0,70.4,99,80,51,30.01,29.93,32,4,41,0.00
2013-8-28,94.5,82.1,73.8,77.4,73.3,66.5,98,77,43,30.00,29.93,19,5,28,0.00
2013-8-29,98.8,83.6,73.4,77.9,73.2,69.1,97,74,41,30.00,29.87,11,3,17,0.00
2013-8-30,100.2,85.1,75.0,79.3,74.2,69.0,97,72,41,29.96,29.85,12,2,18,0.00
2013-8-31,97.5,89.5,78.1,80.1,72.7,67.6,92,60,41,29.94,29.85,14,4,17,0.00
2013-9-1,97.5,84.8,73.2,79.5,75.3,71.7,96,75,46,29.95,29.88,24,4,29,0.00
2013-9-2,97.5,81.6,74.1,82.7,75.4,71.5,99,83,51,29.99,29.90,17,3,19,0.00
2013-9-3,96.4,86.8,73.6,80.5,74.9,71.8,99,70,51,29.99,29.89,16,2,19,0.00
2013-9-4,95.5,81.9,76.3,79.2,75.5,70.6,96,83,51,30.02,29.95,27,4,31,0.00
2013-9-5,95.4,86.1,75.9,82.7,75.7,68.1,98,74,43,30.04,29.93,15,4,23,0.00
2013-9-6,98.8,88.6,76.6,81.0,74.7,69.8,95,66,41,30.01,29.86,27,4,33,0.00
2013-9-7,97.3,82.5,73.8,79.1,74.3,70.9,97,79,46,29.96,29.85,22,5,26,0.00
2013-9-8,97.5,86.1,72.3,77.6,73.2,68.0,98,69,42,29.91,29.80,23,4,27,0.00
2013-9-9,92.7,86.8,75.9,77.4,73.3,68.6,96,66,48,29.96,29.87,19,7,24,0.00
2013-9-10,93.0,85.9,76.3,77.2,74.0,70.3,96,69,49,30.00,29.92,24,12,32,0.00
2013-9-11,91.0,85.4,78.1,77.7,74.4,70.8,95,71,54,30.06,29.92,22,9,30,0.00
2013-9-12,95.9,84.7,74.5,77.8,74.1,69.8,97,73,44,29.96,29.83,24,5,31,0.00
2013-9-13,98.1,88.6,73.0,83.9,72.8,69.3,99,64,41,29.87,29.75,8,3,11,0.00
2013-9-14,100.8,91.8,75.6,77.7,72.7,68.9,92,56,39,29.91,29.82,12,3,18,0.00
2013-9-15,93.7,81.5,76.3,80.7,74.6,68.9,97,81,52,30.02,29.91,22,6,35,0.00
2013-9-16,89.1,77.5,74.3,79.2,74.6,70.9,97,91,68,30.02,29.92,27,6,32,0.00
2013-9-17,90.1,80.0,73.6,81.8,75.5,73.3,99,87,63,29.99,29.88,24,6,30,0.00
2013-9-18,93.9,81.5,74.5,80.4,74.8,72.9,99,82,53,29.95,29.90,17,5,21,0.00
2013-9-19,91.2,84.5,72.9,78.2,75.1,72.0,99,75,58,29.98,29.90,19,7,24,0.00
2013-9-20,90.3,85.3,73.8,75.6,70.4,67.5,97,63,50,29.98,29.85,18,8,22,0.00
2013-9-21,95.5,86.6,72.0,74.9,70.9,67.2,96,62,41,29.86,29.72,10,3,12,0.00
2013-9-22,89.2,80.1,74.8,78.1,75.2,73.3,97,86,62,29.80,29.74,5,2,11,0.00
2013-9-23,84.0,79.0,75.9,80.2,76.7,18.9,97,93,83,29.90,29.82,17,2,24,0.00
2013-9-24,86.5,77.8,73.0,82.6,75.6,71.2,99,93,73,29.92,29.85,18,3,26,0.52
2013-9-25,82.0,77.7,72.1,76.4,73.5,70.5,97,87,71,29.90,29.76,12,4,16,0.11
2013-9-26,92.7,87.2,77.9,83.2,77.2,72.8,98,73,57,29.83,29.76,16,7,21,0.00
2013-9-27,91.4,84.5,73.8,74.7,70.0,64.3,95,64,46,29.88,29.80,14,4,18,0.00
2013-9-28,93.0,84.0,72.5,74.9,71.5,67.3,95,68,46,29.93,29.84,24,9,29,0.00
2013-9-29,91.8,84.9,72.0,73.8,68.2,12.6,95,60,10,29.94,29.82,17,6,21,0.00
2013-9-30,93.9,84.4,72.0,75.0,70.1,63.1,97,66,41,29.96,29.84,14,4,17,0.24
2013-10-1,91.6,82.1,72.9,76.1,71.7,66.1,97,74,46,29.99,29.89,18,7,24,0.00
2013-10-2,90.0,83.2,74.1,74.4,71.9,67.5,94,70,50,30.00,29.90,25,10,30,0.00
2013-10-3,91.8,82.0,74.7,76.5,74.2,72.3,94,79,54,30.01,29.93,17,6,23,0.17
2013-10-4,91.8,83.4,73.6,77.4,71.5,65.7,98,70,45,30.03,29.93,11,5,15,0.00
2013-10-5,91.8,83.1,72.5,75.8,70.3,64.8,95,68,44,30.00,29.87,14,4,19,0.00
2013-10-6,96.6,81.5,72.0,77.1,71.5,67.7,97,75,42,29.94,29.82,8,2,11,0.00
2013-10-7,88.5,82.9,76.1,79.5,75.8,71.3,95,80,61,29.83,29.75,20,6,28,0.29
2013-10-8,90.9,84.1,74.3,77.0,71.5,68.0,95,68,50,29.88,29.81,12,5,16,0.00
2013-10-9,88.9,80.2,73.9,73.9,71.5,69.6,95,76,55,29.98,29.90,14,4,18,0.00
2013-10-10,90.5,78.7,68.9,72.2,68.8,65.0,96,74,46,30.00,29.89,17,5,21,0.00
2013-10-11,91.2,79.3,67.8,72.8,65.8,58.1,97,69,34,30.00,29.89,13,3,17,0.00
2013-10-12,94.5,83.9,68.5,72.2,67.5,62.4,95,61,39,30.00,29.91,9,3,12,0.00
2013-10-13,90.5,81.8,69.8,73.3,65.8,60.1,94,61,42,30.03,29.92,18,5,23,0.00
2013-10-14,90.3,81.7,68.5,70.5,65.1,60.5,93,60,38,29.99,29.86,16,4,19,0.00
2013-10-15,92.7,83.1,69.3,72.6,65.8,60.7,95,60,38,30.06,29.82,12,4,15,19.87
2013-10-16,93.4,81.0,69.4,77.2,69.8,63.4,97,72,41,29.93,29.83,10,3,14,0.00
2013-10-17,96.3,82.9,70.3,74.9,69.7,65.7,96,67,40,29.94,29.83,8,3,10,0.00
2013-10-18,95.0,84.6,71.6,75.3,70.2,64.4,96,65,41,29.95,29.84,9,2,11,0.00
2013-10-19,95.0,83.7,74.1,75.8,73.3,70.8,93,73,49,29.92,29.81,11,3,12,0.00
2013-10-20,96.1,86.2,74.8,83.1,73.4,68.1,98,69,43,29.91,29.83,8,2,11,0.00
2013-10-21,95.2,84.5,73.8,79.9,73.7,70.7,97,72,48,29.96,29.85,11,2,14,0.00
2013-10-22,85.1,82.7,81.3,76.1,75.4,74.8,82,79,73,29.83,29.79,9,3,11,0.00
2013-10-23,87.1,79.2,74.5,77.9,69.6,57.1,97,74,50,29.91,29.78,12,3,15,0.15
2013-10-24,77.0,71.3,66.7,63.2,58.7,52.7,78,65,58,30.08,29.96,15,8,20,0.00
2013-10-25,82.4,74.9,62.4,64.7,60.5,57.2,88,63,48,30.17,30.07,17,7,22,0.00
2013-10-26,84.9,74.0,61.3,64.4,58.7,49.8,91,62,34,30.15,30.01,15,4,18,0.00
2013-10-27,84.2,71.4,61.0,63.8,58.4,54.2,93,67,39,30.08,29.98,16,6,22,19.87
2013-10-28,86.2,78.3,62.4,66.9,62.5,59.1,95,61,43,30.13,30.03,17,6,21,0.00
2013-10-29,86.5,78.9,65.7,67.7,65.6,62.8,92,65,48,30.16,30.04,22,10,26,0.00
2013-10-30,86.7,82.2,71.8,70.4,64.2,59.5,89,56,41,30.16,30.02,24,11,30,0.00
2013-10-31,89.6,81.3,67.3,71.0,66.8,61.1,96,64,40,30.07,29.93,17,5,23,0.00
2013-11-1,90.5,81.8,68.7,75.5,69.9,64.6,97,70,46,29.95,29.85,11,4,16,0.00
2013-11-2,87.4,76.9,70.3,77.7,68.8,62.4,99,77,61,29.90,29.78,17,5,22,0.02
2013-11-3,81.3,75.2,65.3,54.1,48.2,42.4,63,40,26,30.03,29.92,22,8,24,0.00
2013-11-4,82.0,75.2,59.5,63.9,60.4,54.0,83,61,43,30.07,29.99,31,12,43,0.00
2013-11-5,85.8,77.5,66.9,70.5,68.3,65.1,94,74,55,30.05,29.97,28,14,36,0.00
2013-11-6,86.7,80.1,70.0,70.2,67.7,66.1,90,67,52,30.03,29.93,20,9,27,0.00
2013-11-7,87.4,78.2,67.5,73.5,67.9,65.2,97,73,50,30.00,29.90,9,3,12,0.00
2013-11-8,83.3,77.2,66.9,69.0,67.1,64.9,97,72,59,30.04,29.93,20,10,24,0.00
2013-11-9,81.9,76.6,68.9,71.2,69.5,65.8,90,79,68,30.08,30.01,24,12,33,0.00
2013-11-10,86.2,78.8,69.3,72.4,68.0,65.2,95,71,53,30.10,29.99,21,8,24,0.00
2013-11-11,86.7,79.4,68.0,71.7,66.5,62.0,96,67,45,30.09,29.98,21,9,24,0.00
2013-11-12,86.5,78.8,67.8,70.9,66.6,63.7,97,68,48,30.06,29.93,13,4,17,0.00
2013-11-13,72.3,67.2,61.2,59.4,56.5,51.7,76,69,60,30.21,30.05,27,15,38,0.00
2013-11-14,77.7,73.6,67.3,59.8,56.7,52.1,75,56,44,30.21,30.09,29,14,35,0.00
2013-11-15,81.7,75.6,64.8,67.9,65.5,60.5,87,71,61,30.11,29.97,21,10,27,0.00
2013-11-16,79.5,74.6,70.2,72.9,68.3,64.7,96,81,65,30.05,29.97,18,9,23,0.00
2013-11-17,89.6,80.5,68.9,73.8,68.6,63.1,96,69,44,30.03,29.93,11,4,17,0.00
2013-11-18,90.0,82.3,71.8,76.0,70.2,66.8,96,69,48,29.99,29.87,8,3,11,0.00
2013-11-19,89.6,80.0,70.5,74.9,71.5,67.7,97,77,52,29.91,29.81,10,3,13,0.00
2013-11-20,90.9,80.9,68.0,74.9,67.9,63.8,98,69,43,29.99,29.90,10,4,14,0.00
2013-11-21,87.3,81.7,74.5,74.6,71.8,69.1,93,73,58,30.10,30.00,19,6,23,1.28
2013-11-22,85.5,77.7,70.0,73.5,68.3,64.2,98,74,53,30.12,30.01,22,10,30,0.00
2013-11-23,86.0,75.0,66.6,70.1,66.7,64.0,93,77,56,30.06,29.92,16,5,20,0.00
2013-11-24,78.8,73.1,65.5,68.3,65.6,61.9,96,78,66,30.11,30.01,23,10,30,0.00
2013-11-25,78.8,73.0,66.2,65.6,62.3,58.9,88,70,53,30.16,30.03,27,13,41,0.00
2013-11-26,87.3,78.3,70.0,74.2,71.5,68.8,98,81,56,29.93,29.77,14,5,21,0.09
2013-11-27,77.7,68.1,56.5,66.7,55.7,49.0,88,65,48,30.11,29.82,18,8,23,0.05
2013-11-28,69.3,59.4,40.5,54.5,48.7,37.4,90,69,52,30.26,30.14,19,6,26,0.00
2013-11-29,77.0,68.3,54.7,59.7,57.3,52.4,92,69,53,30.27,30.16,29,12,35,0.00
2013-11-30,69.1,59.8,57.4,63.7,59.0,56.2,99,97,83,30.23,30.12,12,6,14,0.00
2013-12-1,73.4,67.9,62.1,72.3,66.2,61.5,99,94,84,30.11,29.96,14,4,50,0.00
2013-12-2,78.3,68.6,59.7,68.3,63.5,59.4,99,85,61,29.92,29.80,8,3,11,0.00
2013-12-3,81.3,72.2,64.6,65.0,63.3,60.1,96,75,55,29.95,29.85,11,3,14,0.00
2013-12-4,87.1,72.5,62.8,71.6,64.7,61.9,99,79,48,30.04,29.93,9,2,11,0.00
2013-12-5,84.0,72.8,64.2,71.1,65.9,62.6,99,81,49,30.12,30.01,15,3,19,0.00
2013-12-6,87.3,74.5,65.8,73.9,68.1,65.3,99,82,52,30.14,30.03,12,3,18,0.00
2013-12-7,86.9,73.7,63.0,71.4,65.9,61.7,99,79,48,30.18,30.07,15,3,19,0.00
2013-12-8,86.2,74.6,66.9,73.0,66.4,62.2,99,78,45,30.16,30.04,16,4,23,0.00
2013-12-9,88.0,74.7,67.3,73.4,66.5,63.4,98,78,46,30.13,30.02,14,3,19,0.00
2013-12-10,88.3,74.1,63.1,74.5,66.8,62.3,99,81,48,30.12,30.03,8,2,11,0.00
2013-12-11,84.6,73.9,66.9,70.0,67.6,65.7,99,83,57,30.19,30.07,17,5,21,0.00
2013-12-12,72.5,67.2,57.9,68.5,60.9,41.2,99,82,44,30.23,30.11,21,7,27,0.00
2013-12-13,77.4,65.4,53.4,62.5,56.1,45.2,92,73,53,30.20,30.04,21,9,27,0.00
2013-12-14,86.2,74.0,63.3,71.7,67.4,61.5,99,82,53,30.07,29.91,15,4,18,0.00
2013-12-15,79.3,73.9,66.9,75.0,69.9,59.4,98,88,76,30.06,29.88,13,4,18,73.48
2013-12-16,72.0,64.0,55.2,60.2,54.4,49.2,89,72,51,30.16,30.04,11,4,14,0.00
2013-12-17,79.0,62.7,49.1,61.1,53.5,45.0,93,74,48,30.19,30.06,16,4,19,0.00
2013-12-18,73.6,62.1,53.1,55.1,47.2,37.8,94,63,28,30.25,30.13,17,4,20,0.00
2013-12-19,78.1,64.3,52.3,58.8,54.4,47.9,89,72,48,30.22,30.09,18,6,21,0.00
2013-12-20,82.9,71.6,61.0,68.3,63.8,58.4,95,78,59,30.14,30.03,21,6,28,0.00
2013-12-21,86.5,75.3,67.8,72.4,68.0,65.1,98,80,52,30.09,29.97,16,5,19,0.00
2013-12-22,87.8,75.7,69.1,73.8,69.3,67.3,99,83,52,30.11,30.01,15,3,19,0.00
2013-12-23,87.8,75.7,69.1,76.8,70.2,67.2,99,85,51,30.13,30.05,11,3,14,0.00
2013-12-24,75.4,67.9,55.9,70.5,62.1,41.9,99,83,47,30.18,30.07,21,6,29,0.00
2013-12-25,76.6,65.5,55.2,63.7,56.5,44.2,82,73,63,30.16,30.05,19,9,24,0.00
2013-12-26,80.6,70.5,61.9,67.6,63.1,56.8,91,78,60,30.14,30.00,18,6,25,0.00
2013-12-27,81.3,71.7,63.9,68.9,65.6,62.5,96,82,62,30.17,30.04,23,10,27,0.00
2013-12-28,83.5,73.1,66.4,70.8,68.2,65.4,99,86,62,30.14,29.97,15,7,27,0.00
2013-12-29,80.8,74.3,68.7,75.9,71.2,63.0,98,90,76,29.98,29.87,17,5,25,0.21
2013-12-30,75.9,67.6,63.0,64.2,62.2,60.3,92,83,64,30.14,29.96,11,4,14,0.00
2013-12-31,73.8,66.7,62.1,61.0,56.1,45.2,92,71,41,30.23,30.09,21,8,25,0.00
2014-1-1,82.8,70.7,62.1,72.0,64.9,56.7,98,83,64,30.17,29.99,17,5,21,0.12
2014-1-2,83.5,73.4,66.0,75.3,69.2,65.7,99,88,63,30.00,29.83,18,5,25,0.13